Regional Weather Roundup
Issued by NWS Upton, NY

Current Version | Previous Version | Text Only | Print | Product List | Glossary On
Versions: 1 2 3 4 5 6 7 8 9 10 11 12 13 14 15 16 17 18 19 20 21 22 23 24 25 26 27
000 ASUS41 KOKX 242004 RWROKX REGIONAL WEATHER ROUNDUP NATIONAL WEATHER SERVICE NEW YORK NY 400 PM EDT FRI JUN 24 2016 NOTE: "FAIR" INDICATES FEW OR NO CLOUDS BELOW 12,000 FEET WITH NO SIGNIFICANT WEATHER AND/OR OBSTRUCTIONS TO VISIBILITY. NYZ071-072-176-178-NJZ106-104-242100- NEW YORK CITY METRO AREA CITY SKY/WX TMP DP RH WIND PRES REMARKS CENTRAL PARK SUNNY 82 55 39 VRB5 30.09R LAGUARDIA APRT MOSUNNY 84 52 33 SE14 30.05S KENNEDY INTL MOSUNNY 78 57 48 E18 30.08R NEWARK/LIBERTY PTSUNNY 78 59 51 SE13G20 30.07R BRNX BOT. GARD N/A 79 52 38 NE14 30.09R TETERBORO MOSUNNY 82 52 35 E9 30.05R $$ NYZ177-179-078>081-242100- LONG ISLAND NEW YORK CITY SKY/WX TMP DP RH WIND PRES REMARKS FARMINGDALE SUNNY 77 53 43 SE16 30.08R ISLIP MOSUNNY 79 52 38 SE17 30.08R SHIRLEY SUNNY 76 55 48 SE12 30.10R RIVERHEAD N/A 77 57 50 S6 30.08R WESTHAMPTON SUNNY 74 56 53 E13G21 30.11R SOUTHAMPTON N/A 72 59 64 E12 30.06S BRIDGEHAMPTON N/A 75 57 53 S2 29.94F EAST HAMPTON FAIR 74 55 51 E13 30.09S MONTAUK POINT N/A 74 56 53 E8 30.10S $$ NYZ052-065-067-242100- HUDSON VALLEY CITY SKY/WX TMP DP RH WIND PRES REMARKS WHITE PLAINS MOSUNNY 82 45 27 E8G18 30.07S NEWBURGH MOSUNNY 81 50 34 VRB6 30.07S MONTGOMERY MOSUNNY 86 52 30 E5 30.05S POUGHKEEPSIE MOSUNNY 84 48 28 S3 30.04S ALBANY MOSUNNY 82 47 29 NW9 30.07F $$ NJZ001-105-106-008-010-013-015-019>022-104-242100- NEW JERSEY CITY SKY/WX TMP DP RH WIND PRES REMARKS NEWARK/LIBERTY PTSUNNY 78 59 51 SE13G20 30.07R TETERBORO MOSUNNY 82 52 35 E9 30.05R CALDWELL CLOUDY 83 53 35 S12G22 30.06R MORRISTOWN PTSUNNY 81 55 41 SE7G18 30.07R SOMERVILLE PTSUNNY 82 60 47 E9 30.04R SUSSEX PTSUNNY 82 54 37 SE9 30.06R ANDOVER N/A 82 54 37 VRB5 30.06S TRENTON CLOUDY 81 62 52 SE12 30.04S MILLVILLE LGT RAIN 69 66 90 E9 30.04R ATLANTIC CITY LGT RAIN 68 66 93 NE7 30.05S FOG WRIGHTSTOWN PTSUNNY 78 64 63 E8 30.02S TOMS RIVER NOT AVBL BELMAR CLOUDY 71 65 81 E10 30.09R $$ PAZ047>061-062-071-242100- EASTERN PENNSYLVANIA CITY SKY/WX TMP DP RH WIND PRES REMARKS PHILADELPHIA CLOUDY 78 63 59 SE16 30.02S ALLENTOWN CLOUDY 83 58 42 E10 30.03R SCRANTON CLOUDY 83 55 38 VRB5 30.05S $$ CTZ002-004>006-009-010-012-RIZ004-006-007-MAZ004-011-015-242100- SOUTHERN NEW ENGLAND IN CT CITY SKY/WX TMP DP RH WIND PRES REMARKS BRADLEY INTL MOSUNNY 84 46 26 VRB5 30.05F HARTFORD SUNNY 84 49 29 S5 30.05S DANBURY MOSUNNY 79 51 37 S9 30.08S WTRBRY/OXFORD MOSUNNY 81 50 34 S10G20 30.11R BRIDGEPORT PTSUNNY 79 56 45 SE12 30.07R MERIDEN MOSUNNY 84 50 30 S14 30.06R NEW HAVEN MOSUNNY 79 56 45 E9 30.08R CHESTER FAIR 77 52 41 SE8G15 30.09S GROTON SUNNY 73 62 68 SE15 30.08R WILLIMANTIC MOSUNNY 85 47 26 VRB3 30.06S IN RI CITY SKY/WX TMP DP RH WIND PRES REMARKS PROVIDENCE MOSUNNY 80 52 37 S20 30.08S BLOCK ISLAND SUNNY 72 56 57 SE15G22 30.10R WESTERLY SUNNY 76 54 46 SE14 30.10R IN MA CITY SKY/WX TMP DP RH WIND PRES REMARKS BOSTON MOSUNNY 71 47 42 E16 30.11S WORCESTER SUNNY 78 44 29 SE8 30.10S WESTFIELD SUNNY 84 44 24 VRB3 30.06S PROVINCETOWN SUNNY 75 49 39 E10 30.12S NANTUCKET SUNNY 72 54 53 E13 30.10R $$ ANZ330-335-338-340-345-350-353-355-242100- COASTAL MARINE OBSERVATIONS STATION/POSITION TIME SKY/WX TEMP WIND PRES VSBY WAVE AIR SEA DIR/SP/G HT/PER (UTC) (F) (DEG/KT/KT) (MB) (MI) (FT/S) NY HARB ENTRANCE 1850 69 70 100/ 14/ 16 1017.6 3/ 7 20S FIRE ISLAND 1850 67 67 100/ 10/ 12 1017.9 3/ 8 GREAT SOUTH BAY 1900 70 76 130/ 14/ 17 N/A 23 SSW MONTAUK P 1850 66 67 100/ 10/ 12 1019.1 3/ 6 15 E BARNEGAT LI 1922 69 N/A 3/ 8 HUDSON CANYON 1850 65 67 1017.2 3/ 8 KINGS POINT 1900 77 66 1017.6 EXECUTION ROCKS NOT AVBL CENTRAL LI SOUND 1900 71 120/ 10/ 12 N/A 1 EASTERN LI SOUND 1900 65 62 130/ 10/ 12 N/A ROBBINS REEF 1900 73 140/ 16/ 18 1017.2 $$ >>>>>>>>>>>>>>>>>>>>>>>>>>>> KEY <<<<<<<<<<<<<<<<<<<<<<<<<<< > < > SKY/WX - SKY CONDITION/PRESENT WEATHER < > TMP - TEMPERATURE IN FAHRENHEIT < > DP - DEWPOINT IN FAHRENHEIT < > RH - RELATIVE HUMIDITY IN PERCENT < > WIND - DIRECTION AND SPEED IN MPH < > PRES - MEAN SEA LEVEL PRESSURE IN INCHES OF HG < > WCI - WIND CHILL INDEX < > VSB - VISIBILITY IN MILES < > HX - HEAT INDEX < > TC - TEMPERATURE IN CELSIUS < > VRB - VARIABLE WIND DIRECTION < > < >>>>>>>>>>>>>>>>>>>>>>>>>>>> KEY <<<<<<<<<<<<<<<<<<<<<<<<<<<

USA.gov is the U.S. government's official web portal to all federal, state and local government web resources and services.